Weather observations for the past three days for
Alabaster, Shelby County Airport
Imperial (Metric)
Date Time (cdt) Wind (mph) Vis. (mi.) Weather Sky Cond. Temperature (ºF) Relative Humidity Wind Chill (°F) Heat Index (°F) Pressure Precipitation (in)
Air Dwpt 6 hour altimeter (in) sea level (mb) 1 hr 3 hr 6 hr
Max. Min.
25 03:53 Calm 10.00 Fair CLR 71.1 64 79% 29.95 1013.4
25 02:53 Calm 10.00 Fair CLR 72 64.9 79% 29.94 1013.1
25 01:53 Calm 10.00 Fair CLR 73 66.9 81% 29.94 1013.0
25 00:53 Calm 10.00 Fair CLR 73.9 66 97 73.9 76% 29.94 1013.1
24 23:53 Calm 10.00 Fair CLR 75 66 74% 76 29.94 1013.1
24 22:53 Calm 10.00 Fair CLR 78.1 64.9 64% 80 29.93 1012.8
24 21:53 Calm 10.00 Fair CLR 79 64.9 62% 81 29.93 1012.6
24 20:53 Calm 10.00 Fair CLR 82 66.9 60% 85 29.91 1012.1
24 19:53 N 3 10.00 Fair CLR 93 61 34% 93 29.9 1011.7
24 18:53 Vrbl 5 10.00 Fair CLR 97 62.1 100 95 32% 98 29.9 1011.5
24 17:53 Vrbl 3 10.00 Fair CLR 99 62.1 30% 100 29.89 1011.2
24 16:53 Vrbl 6 10.00 Fair CLR 98.1 62.1 31% 99 29.89 1011.4
24 15:53 Vrbl 5 10.00 Fair CLR 100 61 28% 101 29.9 1011.6
24 14:53 Vrbl 6 10.00 Fair CLR 98.1 60.1 28% 98 29.92 1012.2
24 13:53 Calm 10.00 A Few Clouds FEW070 96.1 64.9 36% 99 29.94 1013.1
24 12:53 Vrbl 6 10.00 A Few Clouds FEW060 95 66 96.1 78.1 39% 98 29.96 1013.7
24 11:53 W 8 10.00 Mostly Cloudy BKN049 BKN060 91 71.1 52% 98 29.97 1014.0
24 10:53 Vrbl 3 10.00 Partly Cloudy FEW033 SCT042 90 72 56% 97 29.97 1014.1
24 09:53 W 3 9.00 Fair CLR 87.1 75.9 70% 98 29.97 1013.9
24 08:53 NW 5 10.00 Fair CLR 84 75.9 77% 93 29.97 1013.9
24 07:53 SW 5 10.00 Fair CLR 80.1 75 85% 85 29.96 1013.8
24 06:53 SW 5 9.00 Fair CLR 78.1 73.9 81 75.9 87% 81 29.95 1013.2 0.04
24 05:53 SW 5 9.00 Overcast SCT045 BKN060 OVC100 77 73 88% 78 29.93 1012.7 0.04
24 04:53 Calm 10.00 Mostly Cloudy FEW039 SCT080 BKN090 78.1 71.1 79% 80 29.91 1012.0
24 03:53 Calm 10.00 Overcast OVC080 78.1 70 76% 80 29.91 1011.8
24 02:53 Calm 10.00 Mostly Cloudy BKN080 BKN090 79 71.1 77% 82 29.91 1011.8
24 01:53 Calm 10.00 Mostly Cloudy BKN080 BKN110 80.1 70 71% 83 29.91 1011.9
24 00:53 Calm 10.00 Mostly Cloudy SCT085 BKN100 79 70 91.9 78.1 74% 82 29.92 1012.2
23 23:53 Calm 10.00 Mostly Cloudy BKN075 79 70 74% 82 29.92 1012.4
23 22:53 Calm 10.00 Fair CLR 79 68 69% 81 29.92 1012.1
23 21:53 Calm 10.00 Fair CLR 80.1 68 67% 83 29.91 1011.9
23 20:53 Calm 10.00 Fair CLR 82 66.9 60% 85 29.89 1011.4
23 19:53 Calm 10.00 Fair CLR 88 66 48% 90 29.89 1011.1
23 18:53 W 8 10.00 A Few Clouds FEW075 91.9 66 97 91.9 43% 95 29.89 1011.1
23 17:53 W 8 10.00 A Few Clouds FEW080 93 66 41% 96 29.88 1011.0
23 16:53 W 5 10.00 Partly Cloudy SCT075 93.9 66 40% 97 29.89 1011.4
23 15:53 Calm 10.00 A Few Clouds FEW080 95 64.9 37% 98 29.91 1011.9
23 14:53 W 7 10.00 Partly Cloudy SCT075 SCT090 95 64.9 37% 98 29.93 1012.6
23 13:53 W 8 10.00 Mostly Cloudy BKN080 95 64.9 37% 98 29.95 1013.4
23 12:53 W 9 10.00 Partly Cloudy SCT075 93.9 64 96.1 75 37% 96 29.98 1014.1
23 11:53 W 9 10.00 Mostly Cloudy BKN070 91.9 63 38% 93 30 1014.9
23 10:53 NW 10 10.00 Fair CLR 91.9 64 40% 94 30 1015.0
23 09:53 W 6 10.00 Fair CLR 90 66 45% 93 30.01 1015.2
23 08:53 Calm 10.00 Fair CLR 84 68 59% 87 30.01 1015.4
23 07:53 Calm 10.00 Fair CLR 80.1 66.9 64% 82 30.01 1015.2
23 06:53 Calm 9.00 Fair CLR 75 68 75 69.1 79% 76 30 1015.0
23 05:53 Calm 9.00 Fair CLR 71.1 66 84% 29.99 1014.8
23 04:53 Calm 10.00 Fair CLR 69.1 66.9 93% 29.99 1014.6
23 03:53 Calm 10.00 Fair CLR 71.1 68 90% 29.98 1014.2
23 02:53 Calm 10.00 Fair CLR 72 68 87% 29.98 1014.1
23 01:53 Calm 10.00 Fair CLR 73.9 68 82% 29.99 1014.7
23 00:53 Calm 10.00 Fair CLR 73.9 66.9 88 73.9 79% 30.01 1015.3
22 23:53 Calm 10.00 Fair CLR 75.9 69.1 79% 77 30.02 1015.5
22 22:53 Calm 10.00 Fair CLR 78.1 68 71% 80 30.02 1015.6
22 21:53 Calm 10.00 Fair CLR 79 70 74% 82 30.02 1015.5
22 20:53 Calm 10.00 A Few Clouds FEW080 82 69.1 65% 85 30 1015.0
22 19:53 Calm 10.00 Mostly Cloudy SCT080 BKN095 86 69.1 57% 90 29.99 1014.6
22 18:53 Calm 10.00 Mostly Cloudy BKN100 87.1 68 98.1 86 53% 91 29.98 1014.5
22 17:53 SW 3 10.00 A Few Clouds FEW095 91 64.9 42% 93 29.99 1014.6
22 16:53 Calm 10.00 Mostly Cloudy BKN090 91 66.9 45% 94 29.99 1014.7
22 15:53 SE 7 10.00 Mostly Cloudy BKN090 97 63 33% 99 30 1014.9
22 14:53 W 3 10.00 A Few Clouds FEW080 95 63 35% 96 30.02 1015.9
22 13:53 Vrbl 3 10.00 Fair CLR 96.1 64 35% 98 30.05 1016.7
22 12:53 N 5 10.00 Fair CLR 93.9 64.9 95 71.1 38% 96 30.08 1017.8
22 11:53 Vrbl 3 10.00 Fair CLR 93 64.9 40% 95 30.11 1018.5
22 10:53 Vrbl 3 10.00 Fair CLR 90 64.9 44% 92 30.12 1019.2
22 09:53 E 3 10.00 Fair CLR 89.1 64.9 45% 91 30.13 1019.3
22 08:53 Calm 10.00 Fair CLR 82.9 66.9 59% 86 30.14 1019.7
22 07:53 Calm 9.00 Fair CLR 73.9 68 82% 30.14 1019.7
22 06:53 Calm 10.00 Fair CLR 71.1 68 73 69.1 90% 30.14 1019.7
22 05:53 Calm 9.00 Fair CLR 69.1 66.9 93% 30.13 1019.4
22 04:53 Calm 10.00 Fair CLR 70 66.9 90% 30.12 1019.1
Date Time (cdt) Wind (mph) Vis. (mi.) Weather Sky Cond. Air Dwpt Max. Min. Relative Humidity Wind Chill (°F) Heat Index (°F) altimeter (in) sea level (mb) 1 hr 3 hr 6 hr
6 hour
Temperature (ºF) Pressure Precipitation (in)